Location: Dallas
(32.7830°N, 96.8000°W)
Time: 07:50:11
(UTC-05:00)

Tiangong 2 - Visible Passes

Search period start: 23 May 2018 00:00
Search period end: 02 June 2018 00:00
Orbit: 382 x 385 km, 42.8° (Epoch: 23 May)

Date Brightness Start Highest point End Pass type
(mag) Time Alt. Az. Time Alt. Az. Time Alt. Az.
23 May 3.1 21:39:11 10° W 21:42:00 29° NNW 21:44:49 10° NE visible
23 May 4.4 23:17:40 10° NW 23:18:54 13° NNW 23:18:54 13° NNW visible
24 May 4.1 22:17:16 10° NW 22:19:19 16° N 22:21:20 10° NNE visible
25 May 3.7 21:16:49 10° WNW 21:19:16 20° NNW 21:21:43 10° NE visible
25 May 4.1 22:55:09 10° NNW 22:56:46 13° N 22:57:22 13° NNE visible
26 May 4.0 21:54:57 10° NW 21:56:40 14° N 21:58:23 10° NNE visible
26 May 4.6 23:32:00 10° NNW 23:32:27 12° NNW 23:32:27 12° NNW visible
27 May 3.9 20:54:32 10° NW 20:56:35 16° N 20:58:38 10° NNE visible
27 May 3.8 22:32:18 10° NNW 22:34:08 14° N 22:35:16 12° NNE visible
28 May 4.0 21:32:24 10° NNW 21:34:02 13° N 21:35:39 10° NNE visible
28 May 3.9 23:08:52 10° NW 23:10:12 18° NNW 23:10:12 18° NNW visible
29 May 3.5 22:09:14 10° NNW 22:11:27 17° NNE 22:12:57 13° NE visible
30 May 3.8 21:09:31 10° NNW 21:11:21 14° N 21:13:10 10° NE visible
30 May 2.9 22:45:42 10° NW 22:47:51 30° N 22:47:51 30° N visible
31 May 3.0 21:46:04 10° NW 21:48:40 23° NNE 21:50:35 14° ENE visible
31 May 4.3 23:22:27 10° WNW 23:22:46 12° WNW 23:22:46 12° WNW visible
01 Jun 1.4 22:22:36 10° NW 22:25:31 63° N 22:25:31 63° N visible
